{"data":{"norad_id":25504,"epoch":"2026-05-24T22:02:50.953056Z","epoch_age_seconds":81242,"freshness":"FRESH","line1":"1 25504U 98060A   26144.91864529  .00000332  00000+0  41774-4 0  9994","line2":"2 25504  24.9943 215.6577 0016497 236.9509 284.0833 14.45515411456951","mean_motion":14.45515411,"eccentricity":0.0016497,"inclination_deg":24.9943,"raan_deg":215.6577,"arg_perigee_deg":236.9509,"mean_anomaly_deg":284.0833,"bstar":4.1774e-5,"rev_number":45695,"period_min":99.61844675207,"perigee_km":728.59017488723,"apogee_km":752.07685650672,"semimajor_km":7118.470515697,"source":"CELESTRAK","updated_at":"2026-05-25T13:38:12.740139Z"}}